Weather in Cajamarca

Peru     7°09′27″S   78°30′58″W
temp.,
°C
wind,
m/s
gust,
m/s
humid.,
%
clouds,
%
prec.,
mm/h
press.,
hPa
HPBL,
m
1 december, wed
wed101:00+9ne1188100 0.2 101614
04:00+8ne118896 0.0 101511
07:00+11ene227992 0.0 1017117
10:00+17sw015821 0.1 10151156
13:00+14wsw4474100 0.6 1013568
16:00+12w3387100 1.1 1012436
19:00+11sw2298100 1.6 1015205
22:00+11sw119799 0.3 1017169
2 december, thu
thu201:00+11sw1196100 0.4 1016138
04:00+10wsw119286 0.3 1015150
07:00+11nw0185100 0.6 1016154
10:00+17wsw1262100 0.3 10151146
13:00+15wsw4379100 3.1 1013729
16:00+11sw3393100 3.1 1013436
19:00+10sw2297100 3.6 1016344
22:00+10wnw1196100 0.6 1018156
3 december, fri
fri301:00+10ssw0194100 0.8 101584
04:00+10sw1196100 0.1 1015158
07:00+10sw1195100 0.5 1017130
10:00+11sw1190100 0.6 1017200
13:00+15wsw337595 2.1 1013859
16:00+12w238998 1.2 1013414
19:00+11w1197100 1.8 1015161
22:00+11se1195100 0.4 101651
4 december, sat
sat401:00+11ese1292100 1.0 101472
04:00+10ese2392100 1.6 101499
07:00+11e1284100 1.9 1015111
10:00+17s115949 0.3 10131136
13:00+16wsw437288 4.1 1011767
16:00+12wsw3495100 5.6 1012364
19:00+11sw2296100 9.3 1015219
22:00+11sse1194100 1.3 1017120
5 december, sun
sun501:00+10ene1294100 2.8 1016105
04:00+11nne1190100 1.8 101558
07:00+12ene1181100 1.9 101669
10:00+16sw116599 0.8 1015749
13:00+15wsw3377100 4.3 1013650
16:00+11w4599100 6.3 1014413
19:00+10se0195100 17.1 1018140
22:00+10e249185 1.7 1019136